Simultaneous Nadir Overpasses (SNOs) Predictions

Prediction of SNOs between LANDSAT-8 and NOAA-19 Satellite Orbit:

Table of predicted SNOs for the next 14.0 days since TLE Epoch: 6/20/2020
Index Date (LANDSAT-8) Time (LANDSAT-8) Lat,Lon (LANDSAT-8) SZA (LANDSAT-8 ) Date (NOAA-19) Time (NOAA-19) Lat,Lon (NOAA-19) SZA (NOAA-19 ) Distance(km) Time Diff (sec)
1 06/20/2020 07:13:19 79.75, 97.32 57.33 06/20/2020 07:12:51 79.77, 97.36 57.34 2.97 28
2 06/20/2020 08:02:46 -79.75, -95.04 122.68 06/20/2020 08:03:51 -79.73, -94.93 122.66 2.83 65
3 06/22/2020 12:47:04 -79.78,-165.91 122.64 06/22/2020 12:46:10 -79.77,-165.88 122.66 0.53 54
4 06/22/2020 13:36:31 79.74, 1.47 57.31 06/22/2020 13:37:08 79.76, 1.50 57.35 2.50 37
5 06/24/2020 19:10:16 -79.77, 98.25 122.61 06/24/2020 19:10:28 -79.77, 98.11 122.61 2.78 12
6 06/27/2020 00:44:01 79.76,-165.29 57.44 06/27/2020 00:43:43 79.79,-165.24 57.46 3.62 18
7 06/27/2020 01:33:31 -79.65, 1.58 122.72 06/27/2020 01:34:39 -79.59, 4.13 122.53 51.63 68
8 06/29/2020 06:17:46 -79.78, -68.50 122.42 06/29/2020 06:17:03 -79.77, -68.35 122.43 3.23 43
9 06/29/2020 07:07:12 79.78, 99.11 57.58 06/29/2020 07:07:59 79.75, 99.15 57.58 3.05 47
10 07/01/2020 11:51:30 79.80, 28.19 57.74 07/01/2020 11:50:17 79.79, 28.26 57.71 1.77 73
11 07/01/2020 12:40:58 -79.77,-164.38 122.30 07/01/2020 12:41:21 -79.78,-164.43 122.29 1.46 23




NCC Satellite Simultaneous Nadir Overpasses (SNOs) Prediction Service
